Regional Weather Roundup
Issued by NWS

Home | Current Version | Previous Version | Graphics & Text | Print | Product List | Glossary On
Versions: 1 2 3 4 5 6 7 8 9 10 11 12 13 14 15 16 17 18 19 20 21 22 23 24 25 26 27 28 29 30 31 32 33 34 35 36 37 38 39 40 41 42 43 44 45 46 47 48 49 50
000
ASUS43 KFSD 150010
RWRSD

WEATHER ROUNDUP FOR SOUTH DAKOTA
NATIONAL WEATHER SERVICE SIOUX FALLS SD
600 PM CST THU DEC 14 2017

NOTE: "FAIR" INDICATES FEW OR NO CLOUDS BELOW 12,000 FEET WITH NO
SIGNIFICANT WEATHER AND/OR OBSTRUCTIONS TO VISIBILITY.


SDZ001>005-009-010-012>017-150100-
NORTHWEST AND NORTH CENTRAL SOUTH DAKOTA

CITY           SKY/WX    TMP DP  RH WIND       PRES   REMARKS
BUFFALO          N/A     29  22  75 W10       30.07F WCI  20
FAITH            N/A     32  28  85 NW12      30.15S WCI  23
MOBRIDGE       CLOUDY    35  25  66 NW9       30.09F WCI  28
$$

SDZ012>016-024>037-041>051-057-063-072>074-150100-
SOUTHWEST AND SOUTH CENTRAL SOUTH DAKOTA

CITY           SKY/WX    TMP DP  RH WIND       PRES   REMARKS
RAPID CTY ARPT CLOUDY    33  20  58 NW12      30.20R WCI  24
PIERRE         CLOUDY    32  26  78 NW7       30.15F WCI  26
CUSTER         CLEAR     21  13  71 W6        30.12R WCI  13
ELLSWORTH AFB  CLOUDY    33  21  61 NW12      30.18R WCI  24
PHILIP         CLOUDY    33  30  88 NW8       30.19S WCI  26
PINE RIDGE     CLOUDY    31  22  69 N6        30.20R WCI  25
SPEARFISH      MOCLDY    28  19  69 W10       30.17F WCI  19
WINNER         CLOUDY    33  27  78 N14       30.18R WCI  23
$$

SDZ004>011-016>023-039-040-150100-
NORTHEAST SOUTH DAKOTA

CITY           SKY/WX    TMP DP  RH WIND       PRES   REMARKS
ABERDEEN       CLOUDY    26  25  96 SW7       30.10F WCI  18
WATERTOWN      CLOUDY    25  22  88 NW13      30.07R WCI  14
BROOKINGS      CLOUDY    26  24  92 NW7         N/A  WCI  18
SISSETON         N/A     26  23  88 NW3       30.07F
$$

SDZ017-020-022-023-036>040-048>070-150100-
SOUTHEAST SOUTH DAKOTA

CITY           SKY/WX    TMP DP  RH WIND       PRES   REMARKS
SIOUX FALLS    CLOUDY    32  25  75 N12       30.08R WCI  23
HURON          PTCLDY    25  24  96 N7        30.15R WCI  17
CHAMBERLAIN    CLOUDY    33  30  87 NW8       30.17R WCI  26
MITCHELL       CLOUDY    33  28  81 N10       30.15R WCI  25
YANKTON        LGT RAIN  34  29  82 NW13      30.12R WCI  25
$$

ABBREVIATIONS USED IN REMARKS
   TC - TEMPERATURE IN CELSIUS
  WCI - WIND CHILL INDEX
   HX - HEAT INDEX
  VSB - VISIBILITY





USA.gov is the U.S. government's official web portal to all federal, state and local government web resources and services.